This is the latest recevied weather packets stored in our database for station/object EA7URS-13. If no packets are shown the sender has not sent any weather packets the latest 10 day(s).
| Time | Temp. | Humidity | Pressure | Rain* | Wind** | Luminosity | Snow |
|---|---|---|---|---|---|---|---|
| 1788346775 | 31.11° C | 48% | 1011.8 hPa | 0 mm | - | 212 W/m² | - |
| 1788346474 | 31.11° C | 48% | 1011.8 hPa | 0 mm | - | 212 W/m² | - |
| 1788346173 | 30.56° C | 49% | 1011.9 hPa | 0 mm | - | 567 W/m² | - |
| 1788345872 | 30.56° C | 49% | 1011.9 hPa | 0 mm | - | 567 W/m² | - |
| 1788345571 | 31.11° C | 48% | 1012.1 hPa | 0 mm | - | 106 W/m² | - |
| 1788345270 | 31.11° C | 48% | 1012.1 hPa | 0 mm | - | 106 W/m² | - |
| 1788344968 | 30° C | 50% | 1011.9 hPa | 0 mm | - | 563 W/m² | - |
| 1788344667 | 30° C | 50% | 1011.9 hPa | 0 mm | - | 563 W/m² | - |
| 1788344366 | 30° C | 50% | 1011.9 hPa | 0 mm | - | 546 W/m² | - |
| 1788344065 | 30° C | 50% | 1011.9 hPa | 0 mm | - | 546 W/m² | - |
| 1788343764 | 29.44° C | 51% | 1012.2 hPa | 0 mm | - | 524 W/m² | - |
| 1788343463 | 29.44° C | 51% | 1012.2 hPa | 0 mm | - | 524 W/m² | - |
| 1788343162 | 29.44° C | 52% | 1012.2 hPa | 0 mm | - | 509 W/m² | - |
| 1788342861 | 29.44° C | 52% | 1012.2 hPa | 0 mm | - | 509 W/m² | - |
| 1788342560 | 28.33° C | 53% | 1012.1 hPa | 0 mm | - | 465 W/m² | - |
| 1788342258 | 28.33° C | 53% | 1012.1 hPa | 0 mm | - | 465 W/m² | - |
| 1788341956 | 28.33° C | 49% | 1012.3 hPa | 0 mm | - | 461 W/m² | - |
| 1788341655 | 28.33° C | 49% | 1012.3 hPa | 0 mm | - | 461 W/m² | - |
| 1788341354 | 28.33° C | 48% | 1011.9 hPa | 0 mm | - | 439 W/m² | - |
| 1788341053 | 28.33° C | 48% | 1011.9 hPa | 0 mm | - | 439 W/m² | - |
| 1788340752 | 27.78° C | 47% | 1012 hPa | 0 mm | - | 414 W/m² | - |
| 1788340451 | 27.78° C | 47% | 1012 hPa | 0 mm | - | 414 W/m² | - |
| 1788340150 | 27.22° C | 47% | 1011.9 hPa | 0 mm | - | 390 W/m² | - |
| 1788339849 | 27.22° C | 47% | 1011.9 hPa | 0 mm | - | 390 W/m² | - |
| 1788339548 | 27.22° C | 46% | 1011.8 hPa | 0 mm | - | 362 W/m² | - |
* Rain latest hour (hover to see other rain measurements)
** Current wind speed in m/s (hover to see current wind gust speed)